STARLINK-11261, 60724

Orbit data source: Space-Track

STARLINK-11261, 60724 is a payload satellite owned by SpaceX/Seattle (US) in LEO that was launched on Wed, 28 Aug 2024 UTC via an FALCON 9 launch vehicle from the Air Force Eastern Test Range (AFETR). Payload-class satellites include a variety of spacecraft equipped with specific instruments for various scientific and technological missions. These include communications satellites like Starlink; space stations such as the ISS; scientific satellites like the Hubble; Earth observation satellites from companies like Planet Labs, Umbra, and HawkEye 360; GPS; miniature CubeSats for education and research; and military/defense satellites.

Loading next visibility...
Identifier
60724, 2024-152E
Orbit
LEO
Country
Flag of USUS
Related business
Manufacturer
SpaceX/Seattle
Mission
Operational Commercial Communications
Bus & Motor
STARLINK V2MD, Unknown motor
Mass
960 kg wet, ~910 kg dry
Launch date (UTC)
2024-08-28 (2 years ago)
Launch vehicle
FALCON 9
Launch site
Air Force Eastern Test Range (AFETR)
Object type
Payload
Rocket body
Debris
Shape & HBR
Box + 2 Pan, 18.1 m
Radar Cross Section
36.964 m², Large (>1 m²)

Expand to show TLE details & history
Last TLE update: 12 hours ago

TLE from 12 hours ago
0 STARLINK-11261
1 60724U 24152E   26133.31769917  .00000248  00000-0  69038-5 0  9996
2 60724  53.1577 157.8092 0001035 102.0324 258.0810 15.69710110 98981
Epoch: 2026-05-13T07:37Z
TLE epoch observation values (Epoch: 2026-05-13T07:37:29.208Z)
Latitude
-0.00001°
Longitude
172.35804°
Altitude
360.785 km
Speed
7.694 km/s
True Right ascension
10h 31m 14s
True Declination
0° 00' 00"
Sunlit
Object was in daylight at epoch
Visualization orbit readout
Latitude
Unknown
Longitude
Unknown
Altitude
Unknown
Speed
Unknown
Apparent Right ascension
Unknown
Apparent Declination
Unknown
Sunlit
N/A
Visualization observer readout
Local Sidereal Time
04:31:17
Azimuth
Unknown
Elevation
Unknown
Doppler factor
Unknown
Orbital elements
Apogee altitude
360.685 km
Perigee altitude
359.29 km
Semi-major axis
6,738.124 km
Eccentricity
0.0001
Inclination
53.1577°
RAAN
157.8092°
Arg. of periapsis
102.0324°
True anomaly
258.0694°
Mean anomaly
258.081°
Eccentric anomaly
258.0752°
Mean motion
3.92405 °/min
Orbital period
91.74 mins
BSTAR
0.0000069038
Loading maneuver chart data...
Computing Atmospheric mass density...
Loading historical data...
Loading historical data...
Loading historical data...
Loading historical data...
Loading historical data...
Loading historical data...
Loading historical data...

Documentation

Showing up to 5 results
|